Weather History for KCON - September, 2013

Change the Weather History Date:

Tuesday, September 10, 2013

  Actual Average Record
Temperature  
Mean Temperature 63 °F 62 °F  
Max Temperature 74 °F 75 °F 93 °F (1931)
Min Temperature 51 °F 50 °F 29 °F (1978)
Degree Days  
Heating Degree Days 2 4  
Month to date heating degree days 48 32  
Since 1 July heating degree days 78 80  
Cooling Degree Days 0 2  
Month to date cooling degree days 22 23  
Year to date cooling degree days 513 436  
Growing Degree Days 12 (Base 50)    
Moisture  
Dew Point 61 °F    
Average Humidity 90    
Maximum Humidity 100    
Minimum Humidity 79    
Precipitation  
Precipitation 0.05 in 0.11 in 2.69 in (1999)
Month to date precipitation 2.64 1.01  
Year to date precipitation 30.93 27.28  
Snow  
Snow 0.00 in 0.00 in 0.00 in (2002)
Month to date snowfall 0.0 0.0  
Since 1 July snowfall 0.0 0.0  
Since 1 September snowfall 0.0 0.0  
Snow Depth 0.00 in    
Sea Level Pressure  
Sea Level Pressure 30.07 in    
Wind  
Wind Speed 3 mph (SSE)    
Max Wind Speed 8 mph    
Max Gust Speed 26 mph    
Visibility 10 miles    
Events Rain    
T = Trace of Precipitation, MM = Missing Value Source: NWS Daily Summary

Daily Weather History Graph

Daily Weather History Graph

Search for Another Location

Airport or City:

Trip Planner

Search our weather history database for the weather conditions in past years. The results will help you decide how hot, cold, wet, or windy it might be!

Date:

Astronomy

Sep. 10, 2013 Rise Set
Actual Time 6:20 AM EDT 7:04 PM EDT
Civil Twilight 5:51 AM EDT 7:33 PM EDT
Nautical Twilight 5:17 AM EDT 8:07 PM EDT
Astronomical Twilight 4:41 AM EDT 8:42 PM EDT
Moon 11:52 AM EDT (9/10) 9:55 PM EDT (9/10)
Length of Visible Light 13h 41m
Length of Day
12h 44m
Waxing Crescent, 28% of the Moon is Illuminated
Sep 10
Waxing Crescent
Sep 12
First Quarter
Sep 19
Full
Sep 26
Last Quarter
Oct 4
New

Hourly Weather History & Observations

Time (EDT) Temp. Dew Point Humidity Pressure Visibility Wind Dir Wind Speed Gust Speed Precip Events Conditions
12:51 AM 53.1 °F 48.0 °F 83% 30.12 in 10.0 mi SSE 3.5 mph - N/A   Clear
1:51 AM 51.1 °F 48.0 °F 89% 30.14 in 10.0 mi SSE 4.6 mph - N/A   Clear
2:51 AM 54.0 °F 50.0 °F 86% 30.13 in 10.0 mi South 3.5 mph - N/A   Clear
3:51 AM 53.1 °F 50.0 °F 89% 30.11 in 10.0 mi SSE 8.1 mph - N/A   Clear
4:51 AM 53.1 °F 50.0 °F 89% 30.12 in 10.0 mi SSE 3.5 mph - N/A   Partly Cloudy
5:51 AM 53.1 °F 51.1 °F 93% 30.11 in 10.0 mi Calm Calm - N/A   Clear
6:51 AM 54.0 °F 52.0 °F 93% 30.11 in 10.0 mi SSE 4.6 mph - N/A   Scattered Clouds
7:51 AM 57.0 °F 54.0 °F 89% 30.10 in 10.0 mi SSE 4.6 mph - N/A   Scattered Clouds
8:51 AM 60.1 °F 55.0 °F 83% 30.11 in 10.0 mi SSE 5.8 mph - N/A   Mostly Cloudy
9:02 AM 60.8 °F 55.4 °F 82% 30.10 in 10.0 mi SSE 4.6 mph - N/A   Overcast
9:51 AM 61.0 °F 57.9 °F 90% 30.09 in 10.0 mi SSE 5.8 mph - 0.00 in   Overcast
10:35 AM 62.6 °F 59.0 °F 88% 30.09 in 10.0 mi South 3.5 mph - N/A   Overcast
10:51 AM 63.0 °F 60.1 °F 90% 30.08 in 10.0 mi Calm Calm - 0.00 in Rain Light Rain
11:51 AM 64.0 °F 63.0 °F 96% 30.06 in 10.0 mi South 4.6 mph - 0.02 in Rain Light Rain
12:51 PM 64.9 °F 64.0 °F 97% 30.06 in 6.0 mi Calm Calm - 0.02 in Rain Light Rain
1:49 PM 68.0 °F 66.2 °F 94% 30.04 in 10.0 mi South 5.8 mph - 0.01 in Rain Light Rain
1:51 PM 68.0 °F 66.0 °F 93% 30.04 in 10.0 mi South 5.8 mph - 0.01 in Rain Light Rain
2:06 PM 68.0 °F 66.2 °F 94% 30.04 in 10.0 mi SSE 4.6 mph - 0.00 in Rain Light Rain
2:51 PM 71.1 °F 66.9 °F 87% 30.03 in 10.0 mi Variable 5.8 mph - 0.00 in   Scattered Clouds
2:59 PM 71.6 °F 66.2 °F 83% 30.02 in 10.0 mi SW 3.5 mph - N/A   Mostly Cloudy
3:51 PM 73.0 °F 66.9 °F 81% 30.03 in 10.0 mi Calm Calm - N/A   Overcast
4:51 PM 73.0 °F 66.9 °F 81% 30.02 in 10.0 mi SSW 4.6 mph - N/A   Overcast
5:51 PM 72.0 °F 68.0 °F 87% 30.02 in 10.0 mi SSE 3.5 mph - N/A   Overcast
6:51 PM 72.0 °F 68.0 °F 87% 30.04 in 10.0 mi Calm Calm - N/A   Overcast
7:51 PM 71.1 °F 68.0 °F 90% 30.05 in 10.0 mi Calm Calm - N/A   Overcast
8:51 PM 71.1 °F 68.0 °F 90% 30.06 in 10.0 mi Calm Calm - N/A   Overcast
9:51 PM 70.0 °F 68.0 °F 93% 30.06 in 9.0 mi South 4.6 mph - N/A   Overcast
10:51 PM 69.1 °F 68.0 °F 96% 30.06 in 7.0 mi South 3.5 mph - N/A   Clear
11:51 PM 66.9 °F 66.9 °F 100% 30.05 in 4.0 mi SSE 3.5 mph - N/A   Partly Cloudy